Temperature
16 16 16 15 15 15 15 15 15 15 15 15 15 15 15 15 15 15 15 15 15 15 15 15 15 15 15 15 15 15 15 15 15 15 15 15 15 15 15 15 15 15 15
16 15 15 15 15 15 15 15 15 15 15 15 15 15 15 15 15 15 15 15 15 15 15 15 15 15 15 15 15 15 15 15 15 15 15 15 15 15 15 15 15 15 15
15 15 15 15 15 15 15 15 15 15 15 15 15 15 14 14 14 14 14 14 14 14 15 15 15 15 14 14 14 14 15 15 14 14 14 14 15 15 15 15 15 15 15
15 15 15 15 15 15 15 15 15 14 14 14 14 14 14 14 14 14 14 14 14 14 14 14 14 14 14 14 14 14 14 14 14 14 14 14 14 14 14 14 14 14 14
15 15 15 15 15 15 14 14 14 14 14 14 14 14 14 14 14 14 14 14 14 14 14 14 14 14 14 14 14 14 14 14 14 14 14 14 14 14 14 14 14 14 14
15 15 15 15 14 14 14 14 14 14 14 14 14 14 14 14 14 14 14 14 14 14 14 14 14 14 14 13 13 13 13 13 13 13 13 13 13 13 13 13 13 13 13
15 15 14 14 14 14 14 14 14 14 14 14 14 14 14 14 14 14 14 14 13 13 13 13 13 13 13 13 13 13 13 13 13 13 13 13 13 13 13 13 13 13 13
15 14 14 14 14 14 14 14 14 14 14 14 14 14 14 14 14 14 14 14 13 13 13 13 13 13 13 13 13 13 13 13 13 13 13 13 13 13 13 13 13 13 12
15 14 14 14 14 14 14 14 14 14 14 14 14 14 14 13 13 13 13 13 13 13 13 13 13 13 13 13 13 13 13 13 13 12 12 12 13 13 12 12 12 12 12
14 14 14 14 14 14 14 13 13 13 13 13 14 14 14 14 13 13 13 13 13 13 13 13 13 13 13 13 13 13 13 13 13 13 12 12 12 12 12 12 12 12 12
14 14 14 14 14 14 13 13 13 13 13 13 13 13 14 14 14 13 13 13 13 13 13 13 13 13 12 13 12 12 13 12 12 12 12 12 12 12 12 12 12 12 12
14 14 14 14 14 13 13 13 13 13 13 13 13 13 13 13 13 13 13 13 12 12 12 13 12 12 12 12 12 12 12 12 12 12 12 12 12 12 12 12 12 11 11
14 14 13 13 13 13 13 13 13 13 13 13 13 13 13 13 13 13 13 12 12 12 12 12 12 12 12 12 12 12 12 12 12 12 12 12 12 12 12 12 11 11 11
13 13 13 13 13 13 13 13 13 13 13 13 13 13 13 13 13 13 13 12 12 12 12 12 12 12 12 12 12 12 12 12 12 12 12 12 12 12 11 11 11 11 11
13 13 13 13 13 13 13 13 13 13 13 13 13 13 13 12 12 12 12 12 12 11 11 12 11 11 11 11 12 12 11 11 11 11 12 11 11 11 11 11 11 11 11
13 13 13 13 13 13 13 12 12 12 12 12 12 12 12 12 12 12 12 12 12 12 11 11 11 11 11 11 11 11 11 11 11 11 11 11 11 11 11 11 11 11 11
13 13 13 13 13 12 12 12 12 12 12 12 12 12 12 12 12 12 12 12 12 12 11 11 11 11 11 11 11 11 11 11 11 11 11 11 11 11 11 11 11 11 10
13 13 13 12 12 12 12 12 12 12 12 11 11 11 11 11 11 11 12 11 11 11 11 11 10 10 10 10 10 11 10 10 10 10 11 11 11 11 11 10 10 10 10
13 12 12 12 12 12 12 12 12 11 11 11 11 11 11 11 11 11 11 11 11 11 11 11 10 10 10 10 10 10 10 10 10 10 10 10 10 10 10 10 10 10 10
12 12 12 12 12 12 12 12 11 11 11 11 11 11 11 11 11 11 11 11 10 10 10 10 10 10 10 10 10 10 10 10 10 10 10 10 10 10 10 10 10 10 10
12 12 12 12 12 12 12 11 11 11 11 11 11 11 10 10 10 10 10 10 10 10 10 10 9 9 9 9 9 9 9 9 9 9 9 9 10 10 10 10 10 10 10
12 12 12 11 11 11 11 11 11 11 11 10 10 10 10 10 10 10 10 10 9 9 9 9 9 9 9 9 9 9 9 9 8 9 9 9 9 9 9 9 9 9 9
12 12 12 11 11 11 11 11 11 11 11 10 10 10 10 10 10 9 9 9 9 9 9 9 9 9 9 9 9 8 8 8 8 8 8 8 9 9 9 9 9 9 9
11 11 11 11 11 11 11 11 11 10 10 10 10 10 9 9 9 9 9 9 9 9 9 8 8 9 9 8 8 8 8 8 8 8 8 8 8 8 8 8 8 8 8
11 11 11 11 11 11 11 11 10 10 10 10 9 9 9 9 9 9 9 9 9 8 8 8 8 8 8 8 8 8 8 7 7 7 7 7 8 8 8 8 8 8 8
10 10 10 10 10 10 10 10 10 10 9 9 9 9 9 8 8 8 8 8 8 8 8 8 8 8 8 8 8 7 7 7 7 7 7 7 7 7 7 8 8 8 7
Wind_Speed
3 3 3 4 5 5 5 4 5 6 6 6 7 7 7 8 9 10 10 13 13 13 13 12 12 13 13 13 13 12 12 12 12 12 11 9 9 8 7 8 7 8 8
4 3 3 3 3 4 4 5 5 5 5 5 6 6 6 7 8 10 10 11 12 12 12 12 12 12 12 12 12 11 11 11 11 11 11 10 9 9 9 9 8 8 8
5 4 3 3 3 5 5 5 5 4 5 5 5 5 6 6 7 9 10 9 9 11 11 12 11 11 11 11 11 11 11 10 10 10 9 9 10 10 10 10 9 9 9
7 4 3 3 5 5 4 4 4 5 4 4 4 4 4 4 5 7 8 8 8 9 10 11 11 10 10 10 10 10 10 10 9 9 9 9 9 9 9 9 9 9 9
6 4 3 3 5 4 3 4 4 4 3 3 3 4 4 4 4 5 5 6 8 9 9 9 10 10 9 9 9 9 9 9 8 8 8 8 8 8 8 8 8 8 8
6 4 2 3 4 3 3 4 4 3 2 2 4 4 3 3 3 4 4 5 6 7 7 8 7 7 9 8 9 9 8 8 8 8 8 8 8 8 8 7 7 7 7
5 3 3 3 3 3 3 3 3 3 2 2 3 3 2 3 3 3 3 3 4 5 6 6 6 6 6 8 8 8 8 8 8 8 7 7 7 7 6 7 6 6 6
5 3 3 3 3 2 3 3 3 2 1 2 2 2 2 2 2 2 2 3 3 3 4 5 6 6 7 7 7 8 7 7 7 7 6 6 6 6 6 6 6 5 5
4 3 3 2 2 3 2 3 3 2 1 1 2 2 2 1 0 2 2 2 2 2 2 3 5 6 6 7 7 7 7 6 6 6 5 5 5 5 5 5 5 5 4
2 2 2 2 2 3 3 2 2 1 1 1 1 2 2 3 2 0 2 2 2 3 2 3 4 5 6 7 8 7 7 6 5 5 5 4 4 4 4 5 5 4 4
2 2 2 2 2 2 2 2 2 1 1 1 1 1 2 1 1 2 0 1 2 2 2 2 3 4 5 5 6 7 6 5 4 4 3 3 3 3 4 4 4 4 3
1 1 2 2 2 2 1 2 1 1 1 1 0 1 1 1 0 1 1 1 0 0 1 1 2 3 4 4 5 6 6 6 4 3 3 3 3 3 3 4 3 3 3
1 1 1 2 2 2 1 1 1 1 1 1 1 0 1 1 0 1 1 1 0 0 1 1 1 3 3 4 5 5 6 6 5 4 3 2 2 2 2 2 2 2 2
2 2 1 1 1 2 2 1 1 0 0 0 0 0 0 0 0 1 1 1 0 1 1 1 0 2 3 4 4 5 4 5 5 4 4 3 2 2 2 2 2 2 2
2 3 2 2 2 2 2 1 1 0 0 0 0 1 0 0 0 0 1 2 2 1 1 1 0 0 2 3 3 3 3 5 5 5 4 3 3 2 1 1 1 1 2
2 3 3 3 2 2 2 1 1 0 0 0 0 0 0 0 0 0 0 0 1 2 1 1 1 1 1 2 2 1 2 3 5 6 5 5 4 3 2 2 2 2 1
3 3 3 3 3 2 2 2 1 1 1 1 0 1 0 0 0 0 0 0 0 1 2 1 0 0 1 1 1 0 1 2 3 5 6 6 5 4 4 3 3 3 2
2 2 2 3 3 3 3 2 2 1 1 1 0 0 0 0 0 0 0 1 1 1 2 1 1 0 0 0 1 0 0 0 1 3 5 6 6 6 6 5 5 4 4
2 2 2 2 2 2 2 2 1 1 1 1 1 1 1 1 0 0 0 0 1 1 1 1 1 1 0 0 1 1 1 0 1 2 3 5 6 6 6 6 6 5 5
2 1 2 1 1 2 1 1 1 1 1 1 0 0 1 1 1 1 0 0 1 1 0 0 1 1 1 0 0 1 1 1 2 1 1 3 5 6 6 6 6 6 6
1 1 2 2 2 1 1 1 1 1 1 1 0 0 0 1 1 1 1 1 1 1 1 1 1 1 1 1 1 1 1 2 2 1 1 2 2 3 4 6 6 6 6
1 2 2 2 2 1 1 2 1 2 2 1 1 1 1 1 1 1 0 2 3 3 3 2 2 3 3 3 2 1 1 1 2 1 1 3 2 2 3 5 7 7 7
1 1 2 2 2 2 2 2 2 2 2 2 1 1 1 1 2 1 1 1 2 3 5 4 4 4 4 3 2 2 2 2 3 3 1 3 2 3 4 6 9 9 9
2 2 2 2 3 2 3 3 2 2 2 2 2 2 1 1 1 0 0 1 2 2 2 2 2 3 2 2 3 3 4 3 3 2 1 3 3 3 2 3 8 9 9
2 2 2 2 3 3 4 3 2 1 1 1 1 1 2 2 2 1 0 1 2 2 3 3 3 3 4 4 2 1 1 1 3 3 2 2 2 2 2 3 6 7 8
2 2 2 2 3 3 4 3 2 1 1 1 1 1 2 2 3 3 2 2 3 3 2 3 3 4 3 3 4 3 3 3 2 3 2 2 2 1 2 2 3 4 6
Wind_Direction
62 54 67 63 58 56 55 52 57 53 53 57 63 69 76 82 88 88 88 86 84 87 89 86 86 87 87 84 80 80 78 77 78 80 82 82 81 83 93 95 97 101 99
67 68 61 64 58 63 64 68 67 57 56 56 56 54 60 75 88 96 97 90 86 88 89 86 87 88 88 86 83 81 80 81 80 80 80 78 76 78 84 89 90 93 97
64 63 64 62 58 62 66 70 70 68 70 66 61 57 56 56 80 91 100 101 93 89 89 85 85 85 84 84 84 83 81 81 82 81 82 81 79 78 80 83 84 88 93
68 63 63 60 54 59 60 69 66 63 59 60 60 62 62 51 61 89 95 99 103 98 93 88 87 86 86 84 84 82 80 79 81 83 82 81 80 79 80 79 78 82 88
68 69 64 61 56 54 58 68 61 69 71 71 72 76 70 61 49 72 81 94 102 110 108 98 92 86 85 86 87 86 84 81 79 85 85 84 84 81 79 79 77 81 85
67 68 74 67 64 66 64 70 70 63 69 73 85 90 87 79 64 54 59 77 90 99 106 115 109 91 84 86 88 88 85 80 79 85 90 90 86 83 78 77 79 81 84
73 74 79 76 79 82 84 79 79 68 58 64 74 76 69 75 74 69 59 66 70 85 93 104 109 107 97 87 85 90 87 81 80 83 88 90 87 85 84 80 83 85 85
69 75 98 91 89 85 78 75 71 68 41 63 89 92 71 29 24 58 65 70 57 67 83 91 99 102 104 106 92 91 92 86 82 81 82 82 86 87 85 83 82 86 88
74 63 65 93 113 108 101 96 90 79 61 9 51 91 115 132 28 10 53 67 58 55 59 67 84 91 98 107 109 94 91 89 84 79 82 84 84 87 87 83 81 83 89
93 82 70 76 88 100 105 122 117 103 101 42 12 23 80 119 123 29 353 26 62 63 60 61 66 77 88 98 109 108 99 93 88 79 74 81 83 83 84 84 76 75 83
100 91 80 72 91 98 102 86 102 96 85 83 69 35 39 54 115 131 136 339 22 37 62 76 79 87 90 99 112 117 117 108 100 89 76 76 81 84 84 81 77 71 82
150 117 104 93 91 102 96 89 98 111 113 80 67 68 108 93 95 114 149 174 125 298 58 77 102 101 102 116 121 124 130 134 127 110 94 85 81 84 85 81 78 70 75
146 162 140 132 134 124 106 97 85 84 121 142 150 152 89 86 108 126 132 153 72 344 70 35 108 114 120 118 127 137 145 150 150 144 135 117 101 99 94 88 77 66 68
158 148 131 134 126 119 106 102 99 48 89 94 173 113 101 31 8 127 143 138 74 336 46 278 14 103 119 120 134 140 142 155 156 160 159 150 150 145 119 101 81 64 69
141 128 140 131 127 124 119 118 110 66 76 56 47 32 61 67 4 115 131 151 167 215 276 265 346 140 121 120 134 152 153 172 173 175 176 167 169 166 154 147 120 79 75
137 141 146 142 142 133 121 109 112 359 71 2 149 135 15 344 318 327 169 187 169 191 235 248 231 217 114 107 121 155 161 167 183 185 186 187 185 185 189 186 181 163 162
143 144 148 149 147 141 138 135 170 202 174 227 229 147 171 124 307 266 73 88 163 157 175 265 222 96 70 68 83 348 170 182 196 195 198 200 197 199 202 198 185 184 194
152 160 158 155 153 152 157 159 187 218 193 216 233 80 267 224 236 234 147 169 179 160 156 205 274 12 51 65 116 23 86 288 212 206 207 207 212 210 212 212 209 210 210
156 170 155 157 154 153 159 154 168 194 182 226 223 214 228 142 153 10 76 121 137 117 148 173 248 299 282 49 35 346 314 341 291 245 218 222 226 224 224 224 221 215 213
176 190 165 150 137 130 144 146 158 220 235 245 260 212 151 147 149 148 162 142 115 101 132 160 219 268 274 291 93 277 298 300 302 281 253 241 234 232 232 231 226 219 215
191 176 155 155 158 168 186 169 191 245 260 250 279 96 134 151 170 207 208 192 175 185 203 202 229 256 256 252 240 234 255 283 288 256 249 236 215 215 224 228 229 229 220
202 174 161 164 178 207 175 171 187 224 242 222 209 211 204 170 152 131 262 220 204 208 211 211 229 231 241 239 225 230 241 293 289 260 235 265 209 224 215 209 220 224 223
195 191 180 172 160 174 189 197 227 229 228 216 202 203 247 199 117 106 323 313 277 258 232 221 223 234 228 226 218 229 245 251 256 247 248 264 245 238 223 219 220 221 218
185 204 199 189 171 189 198 206 238 241 219 210 200 188 186 171 168 128 289 308 290 294 274 256 228 240 243 225 208 219 230 254 279 262 226 257 253 248 240 218 222 217 216
209 207 197 183 181 197 196 193 203 248 241 242 213 176 180 181 195 213 242 278 289 294 312 302 283 270 272 269 251 239 240 242 273 272 249 237 250 258 248 232 220 216 213
211 198 207 208 191 188 195 195 197 205 241 272 260 206 198 196 216 222 228 238 254 260 277 294 299 296 278 264 251 212 215 233 255 263 246 230 251 252 266 245 205 213 213
Height
1523 1523 1523 1523 1523 1523 1523 1524 1525 1525 1526 1527 1527 1528 1528 1529 1529 1529 1530 1531 1531 1531 1531 1531 1532 1532 1532 1533 1533 1534 1534 1535 1535 1535 1536 1537 1538 1539 1539 1540 1540 1541 1541
1525 1524 1524 1524 1525 1526 1526 1526 1527 1527 1527 1528 1529 1529 1530 1530 1531 1531 1531 1532 1532 1533 1533 1533 1533 1533 1534 1534 1534 1535 1535 1535 1536 1536 1537 1537 1538 1539 1539 1540 1540 1540 1541
1526 1526 1526 1526 1526 1527 1528 1528 1529 1529 1529 1530 1530 1531 1532 1532 1532 1532 1533 1533 1534 1534 1534 1534 1534 1535 1535 1535 1535 1535 1536 1536 1536 1537 1537 1538 1538 1539 1539 1540 1540 1540 1541
1527 1527 1527 1527 1528 1528 1529 1529 1530 1530 1531 1531 1532 1532 1533 1533 1534 1534 1534 1535 1535 1535 1535 1536 1536 1536 1536 1536 1536 1536 1536 1536 1537 1537 1538 1538 1539 1539 1540 1540 1540 1540 1540
1527 1527 1528 1528 1529 1529 1530 1530 1531 1531 1532 1532 1533 1534 1534 1534 1535 1536 1536 1536 1536 1536 1536 1537 1537 1537 1537 1536 1536 1536 1536 1536 1537 1537 1537 1538 1539 1539 1540 1540 1540 1540 1540
1528 1528 1528 1529 1529 1529 1530 1531 1531 1532 1533 1533 1534 1535 1536 1536 1536 1537 1537 1538 1538 1538 1538 1538 1538 1537 1537 1537 1537 1537 1537 1537 1537 1537 1537 1538 1539 1539 1539 1539 1540 1540 1540
1527 1528 1528 1529 1530 1530 1530 1531 1532 1533 1534 1534 1535 1536 1537 1538 1538 1538 1538 1538 1539 1539 1539 1539 1538 1538 1538 1538 1538 1537 1537 1537 1537 1537 1537 1538 1539 1539 1539 1539 1540 1540 1540
1527 1528 1529 1529 1530 1530 1531 1532 1533 1533 1534 1535 1536 1536 1538 1540 1539 1539 1539 1539 1540 1540 1539 1539 1539 1539 1538 1538 1538 1538 1538 1538 1537 1538 1538 1538 1539 1539 1539 1539 1539 1540 1540
1527 1528 1529 1529 1530 1530 1531 1532 1533 1534 1534 1536 1536 1537 1537 1538 1539 1540 1540 1540 1540 1540 1540 1540 1539 1539 1539 1539 1539 1538 1538 1538 1538 1538 1538 1538 1539 1539 1539 1539 1539 1539 1540
1527 1527 1528 1529 1530 1530 1531 1532 1533 1534 1535 1535 1536 1537 1537 1538 1539 1540 1541 1540 1540 1540 1540 1539 1539 1539 1539 1539 1539 1539 1538 1538 1538 1538 1538 1538 1538 1538 1538 1538 1539 1539 1539
1526 1527 1527 1528 1529 1530 1530 1531 1532 1533 1534 1535 1536 1536 1537 1537 1538 1538 1539 1540 1540 1540 1539 1539 1539 1539 1539 1539 1539 1539 1539 1538 1538 1538 1538 1538 1538 1538 1538 1538 1538 1539 1539
1525 1526 1527 1527 1528 1529 1530 1531 1531 1532 1533 1534 1535 1536 1536 1537 1537 1537 1538 1538 1539 1539 1539 1539 1539 1538 1538 1538 1538 1538 1538 1538 1538 1537 1537 1537 1537 1537 1537 1537 1538 1538 1538
1523 1524 1525 1526 1526 1527 1528 1529 1530 1531 1532 1533 1534 1535 1535 1536 1536 1537 1537 1537 1538 1538 1538 1538 1538 1538 1538 1537 1537 1537 1537 1537 1537 1537 1537 1537 1537 1536 1536 1536 1537 1537 1538
1522 1523 1523 1524 1525 1526 1527 1528 1529 1530 1531 1532 1533 1533 1534 1535 1535 1536 1536 1536 1536 1537 1537 1537 1537 1537 1537 1536 1536 1536 1536 1536 1536 1536 1536 1536 1536 1536 1536 1535 1536 1536 1537
1520 1521 1522 1523 1524 1524 1525 1526 1527 1528 1529 1530 1531 1531 1532 1533 1534 1534 1534 1535 1535 1535 1535 1536 1536 1536 1536 1535 1535 1535 1535 1534 1534 1535 1534 1534 1534 1534 1534 1534 1534 1535 1535
1518 1519 1520 1521 1522 1523 1524 1525 1526 1527 1527 1528 1529 1529 1530 1531 1531 1532 1532 1533 1533 1533 1533 1534 1534 1534 1534 1534 1534 1533 1533 1533 1533 1533 1533 1533 1533 1533 1533 1533 1533 1533 1534
1517 1517 1518 1519 1520 1521 1522 1522 1524 1525 1525 1526 1526 1527 1528 1528 1529 1530 1530 1530 1531 1531 1531 1531 1532 1532 1532 1532 1531 1531 1531 1531 1531 1531 1530 1530 1531 1531 1531 1531 1531 1531 1531
1515 1516 1517 1517 1518 1519 1520 1520 1521 1522 1523 1524 1524 1525 1525 1526 1526 1527 1527 1527 1528 1528 1528 1528 1529 1530 1530 1529 1529 1529 1529 1528 1528 1528 1528 1528 1528 1528 1528 1529 1529 1529 1529
1513 1514 1515 1516 1516 1517 1518 1518 1519 1520 1521 1521 1522 1522 1523 1523 1523 1524 1524 1525 1525 1526 1526 1526 1526 1527 1527 1527 1527 1526 1526 1526 1526 1525 1525 1525 1525 1525 1525 1526 1526 1526 1526
1511 1512 1513 1513 1514 1515 1515 1516 1517 1517 1518 1519 1520 1520 1520 1521 1521 1521 1521 1522 1522 1523 1523 1524 1524 1524 1524 1524 1524 1523 1523 1523 1523 1523 1522 1522 1522 1522 1523 1523 1523 1523 1523
1508 1509 1510 1511 1511 1512 1513 1514 1514 1515 1515 1516 1517 1517 1517 1518 1518 1518 1519 1519 1519 1519 1520 1520 1520 1521 1521 1521 1521 1521 1520 1520 1519 1520 1519 1519 1519 1519 1519 1519 1520 1520 1520
1505 1506 1507 1507 1508 1509 1510 1510 1511 1512 1512 1513 1513 1514 1514 1515 1515 1515 1516 1516 1516 1517 1516 1517 1517 1518 1518 1518 1518 1518 1517 1517 1516 1517 1516 1516 1516 1516 1516 1516 1516 1516 1517
1502 1503 1504 1504 1505 1506 1507 1507 1508 1508 1509 1510 1510 1510 1511 1512 1512 1512 1512 1513 1513 1514 1514 1515 1514 1515 1515 1515 1515 1514 1514 1514 1513 1513 1513 1512 1512 1512 1512 1512 1513 1513 1513
1498 1499 1500 1501 1501 1502 1503 1504 1505 1505 1506 1506 1507 1507 1508 1508 1508 1509 1509 1509 1509 1510 1510 1510 1511 1511 1512 1512 1512 1511 1511 1511 1510 1510 1510 1509 1509 1509 1509 1509 1509 1509 1510
1494 1495 1496 1497 1497 1498 1499 1500 1501 1502 1502 1503 1503 1504 1504 1504 1504 1505 1505 1505 1505 1505 1506 1506 1507 1507 1508 1508 1508 1507 1507 1507 1506 1506 1506 1506 1505 1505 1504 1504 1505 1506 1506
1491 1492 1492 1493 1494 1495 1495 1496 1497 1497 1498 1498 1499 1499 1500 1500 1500 1500 1501 1501 1500 1501 1501 1501 1502 1502 1503 1503 1503 1503 1503 1503 1502 1502 1502 1502 1501 1501 1500 1500 1501 1501 1502